Location: Beekmeers
(50.8953°N, 3.6968°E)
Time: 05:35:23
(UTC+00:00)

Cosmos 2181 Rocket - Pass Details

Date: 23 May 2024
Orbit: 951 x 1014 km, 82.9° (Epoch: 19 June)

Event Time Altitude Azimuth Distance (km) Brightness Sun altitude
Rises 01:47:49 0° 351° (N) 3,749 7.9 -13.3°
Reaches altitude 10° 01:50:24 10° 354° (N) 2,788 7.2 -13.1°
Maximum altitude 01:56:47 67° 77° (ENE) 1,074 4.4 -12.6°
Drops below altitude 10° 02:03:01 10° 160° (SSE) 2,726 6.0 -12.0°
Sets 02:05:31 0° 163° (SSE) 3,661 6.6 -11.8°
